Regional Weather Roundup
Issued by NWS

Home | Current Version | Previous Version | Graphics & Text | Print | Product List | Glossary On
Versions: 1 2 3 4 5 6 7 8 9 10 11 12 13 14 15 16 17 18 19 20 21 22 23 24 25 26 27 28 29 30 31 32 33 34 35 36 37 38 39 40 41 42 43 44 45 46 47 48 49 50
000
ASUS45 KCYS 220410
RWRWY

WYOMING REGIONAL WEATHER ROUNDUP
NATIONAL WEATHER SERVICE CHEYENNE WY
900 PM MST SUN DEC 21 2014

NOTE:  "FAIR" INDICATES FEW OR NO CLOUDS BELOW 12,000 FEET
WITH NO SIGNIFICANT WEATHER AND/OR OBSTRUCTIONS TO VISIBILITY.

WYZ001-220500-
YELLOWSTONE NATIONAL PARK

CITY           SKY/WX    TMP DP  RH WIND       PRES   REMARKS
LK YELLOWSTONE   N/A     22  17  81 W7        29.79R WCI  13
W YELLOWSTONE  NOT AVBL

$$
WYZ002>013-054>058-071-098>099-220500-
NORTHERN WYOMING

CITY           SKY/WX    TMP DP  RH WIND       PRES   REMARKS
JACKSON        MOCLDY    36  19  51 W24G38    29.82R WCI  24
CODY           FAIR      34  30  86 W8        29.70R WCI  27
GREYBULL       MOCLDY    30  28  92 W12       29.68R WCI  20
WORLAND        LGT RAIN  36  30  79 NW13      29.69R WCI  27
SHERIDAN       CLOUDY    40  25  55 NW33G45   29.62R WCI  28
BUFFALO        CLOUDY    36  22  56 N21G28    29.60R WCI  25
GILLETTE       CLOUDY    35  30  82 NW20      29.57R WCI  24
HULETT           N/A    N/A N/A N/A MISG        N/A
NEWCASTLE      LGT SNOW  32  32 100 NW18G26   29.55R WCI  20

$$
WYZ014>020-022>026-101>103-220500-
CENTRAL WYOMING

CITY           SKY/WX    TMP DP  RH WIND       PRES   REMARKS
BIG PINEY      FAIR      32  20  61 N21G31    29.81R WCI  20
PINEDALE       FAIR      27  19  74 NW6       29.80R WCI  20
DUBOIS         NOT AVBL
LANDER         FAIR      34  16  47 NW6       29.68R WCI  29
RIVERTON       FAIR      33  20  58 NW20G26   29.68R WCI  21
CASPER         MOCLDY    33  29  85 W14G21    29.67R WCI  23
DOUGLAS        FAIR      34  30  85 NW13      29.62R WCI  25

$$
WYZ021-027>030-104>119-220500-
SOUTHERN WYOMING

CITY           SKY/WX    TMP DP  RH WIND       PRES   REMARKS
EVANSTON       FLURRIES  34  31  88 W21G29    29.94R WCI  22
KEMMERER       CLOUDY    32  30  93 W32G41    29.85S WCI  17
FORT BRIDGER   MOCLDY    35  34  95 W33G45    29.86F WCI  21
ROCK SPRINGS   LGT SNOW  31  30  96 NW17G23   29.80R FOG     WCI  19
DIXON          FLURRIES  34  32  90 NW17G30   29.79S WCI  24
RAWLINS        FAIR      30  21  69 W10       29.73R WCI  21
SARATOGA       MOCLDY    32  28  86 NW12G18   29.73R WCI  23
LARAMIE        LGT SNOW  28  26  92 N20G30    29.66R FOG     WCI  15
CHEYENNE       HVY SNOW  31  28  89 N20G30    29.65R VSB 1/4 WCI  19
TORRINGTON     CLOUDY   N/A N/A N/A NW12G20   29.59R
PINE BLUFFS    LGT SNOW  32  32 100 N29G39    29.62R VSB 1   WCI  18

$$


USA.gov is the U.S. government's official web portal to all federal, state and local government web resources and services.